[[{"header":{"parameterUnit":"m.s-1","parameterCategory":1,"la1":30.2991,"la2":30.254,"lo1":-89.0895,"lo2":-89.0444,"dy":0.0017,"dx":0.0017,"nx":28,"ny":28,"refTime":"2024-12-24T03:00:00:Z","depth":0,"parameterNumber":2,"parameterNumberName":"U-component_of_WINDS"},"data":[0,0,0,0,0,0,0,0,0,0,0,0,0,0,0,0,0,0,0,0,0,0,0,0,0,0,0,0,0,0,0,0,0,0,0,0,0,0,0,0,0,0,0,0,0,0,0,0,0,0,0,0,0,0,0,0,0,0,-3.5535,-3.5535,0,-3.5561,-3.5562,-3.5562,-3.5418,-3.5414,-3.5409,-3.5406,-3.5436,-3.544,-3.5445,0,0,0,0,0,0,0,0,0,0,0,0,0,-3.5364,-3.5367,-3.5535,-3.5535,-3.5535,-3.5561,-3.5562,-3.5562,-3.5418,-3.5413,-3.5408,-3.5404,-3.5434,-3.544,-3.5445,0,0,0,0,0,0,0,0,0,0,0,0,0,-3.5419,-3.5369,-3.5535,-3.5467,-3.5461,-3.5561,-3.5562,-3.5562,-3.542,-3.5413,-3.5407,-3.5401,-3.5432,-3.5439,-3.5446,-3.5614,0,0,-3.5468,-3.5471,0,0,0,0,0,0,0,0,-3.5416,-3.5425,-3.5476,-3.5472,-3.5465,-3.548,-3.5512,-3.558,-3.5421,-3.5435,-3.5405,-3.5398,-3.5456,-3.546,-3.5479,-3.5615,-3.5616,-3.5468,-3.5472,-3.5475,-3.5477,0,0,0,0,0,0,0,-3.5412,-3.5424,-3.5545,-3.5477,-3.5471,-3.5436,-3.5437,-3.5524,-3.548,-3.5434,-3.5423,-3.5428,-3.5451,-3.5473,-3.5479,-3.5617,-3.5468,-3.5474,-3.5478,-3.5481,-3.5894,-3.5901,0,0,0,0,0,0,-3.5417,-3.5421,-3.5544,-3.5546,-3.5425,-3.5445,-3.5446,-3.5481,-3.5479,-3.5472,-3.5434,-3.5421,-3.5464,-3.5471,-3.5479,-3.5676,-3.5475,-3.5482,-3.5486,-3.5887,-3.5896,-3.5903,0,0,0,0,0,0,-3.5414,-3.5429,-3.5543,-3.5481,-3.5493,-3.5454,-3.5496,-3.5485,-3.5506,-3.5479,-3.547,-3.5463,-3.5459,-3.5469,-3.5582,-3.5675,-3.5485,-3.5491,-3.5879,-3.589,-3.5899,-3.6072,0,0,0,0,0,0,-3.541,-3.5429,-3.5491,-3.5483,-3.5497,-3.5645,-3.5501,-3.549,-3.5518,-3.5503,-3.5504,-3.5498,-3.5455,-3.5572,-3.5589,-3.5682,-3.5497,-3.5871,-3.5884,-3.5896,-3.6058,-3.6087,-3.6112,0,0,0,0,0,-3.5404,-3.5539,-3.5495,-3.5511,-3.5573,-3.565,-3.5658,-3.5604,-3.5526,-3.5589,-3.5572,-3.5498,-3.5663,-3.5585,-3.5602,-3.5699,-3.5865,-3.588,-3.5895,-3.6046,-3.6081,-3.6111,0,0,0,0,0,0,-3.5559,-3.5537,-3.5488,-3.5624,-3.564,-3.5626,-3.5703,-3.5643,-3.5682,-3.5666,-3.5599,-3.5601,-3.5725,-3.5723,-3.5637,-3.5862,-3.575,-3.577,-3.5859,-3.5892,-3.5919,-3.5917,-3.5503,0,0,0,0,0,-3.5609,-3.5673,-3.565,-3.5772,-3.5783,-3.5742,-3.5774,-3.5731,-3.5745,-3.5752,-3.5742,-3.576,-3.5816,-3.5854,-3.5903,-3.6057,-3.6056,-3.6132,-3.6159,-3.6181,-3.6199,-3.6282,-3.6316,-3.5953,-3.5953,-3.5953,0,0,-3.5713,-3.5709,-3.5753,-3.5803,-3.5811,-3.5879,-3.5749,-3.5826,-3.5877,-3.5764,-3.5869,-3.5864,-3.5879,-3.6013,-3.6072,-3.6015,-3.6299,-3.6201,-3.6219,-3.6224,-3.6301,-3.6336,-3.6366,-3.5963,-3.5961,-3.596,0,0,-3.5938,-3.594,-3.6043,-3.6054,-3.6067,-3.6039,-3.6065,-3.606,-3.6052,-3.6156,-3.6074,-3.6134,-3.623,-3.6245,-3.6266,-3.6499,-3.6434,-3.6517,-3.6658,-3.674,-3.6769,-3.6794,-3.6878,-3.6909,-3.6535,-3.6536,-3.6536,0,-3.6066,-3.6164,-3.6104,-3.6188,-3.6213,-3.6114,-3.6219,-3.6232,-3.6262,-3.6283,-3.6218,-3.6339,-3.6342,-3.648,-3.6537,-3.6556,-3.6584,-3.6517,-3.6769,-3.6794,-3.6816,-3.6896,-3.6928,-3.6546,-3.6545,-3.6544,-3.6543,0,-3.6322,-3.6392,-3.6474,-3.6504,-3.6539,-3.6633,-3.6589,-3.6631,-3.6587,-3.6567,-3.6676,-3.6677,-3.6726,-3.6755,-3.6713,-3.6888,-3.6853,-3.678,-3.6667,-3.6862,-3.6936,-3.6966,-3.656,-3.6557,-3.6554,-3.6551,0,0,-3.6643,-3.6641,-3.6672,-3.6685,-3.6694,-3.6747,-3.6838,-3.6886,-3.6924,-3.6949,-3.7024,-3.711,-3.7043,-3.7067,-3.7025,-3.7097,-3.7284,-3.7015,-3.7015,-3.7066,-3.7479,-3.7534,-3.757,-3.724,-3.7246,-3.725,-3.7478,0,-3.6864,-3.7017,-3.6967,-3.7123,-3.7188,-3.7096,-3.7175,-3.719,-3.7175,-3.7229,-3.7212,-3.7274,-3.7181,-3.7195,-3.7262,-3.7247,-3.7366,-3.723,-3.7311,-3.7315,-3.7311,-3.7608,-3.7666,-3.7881,-3.7506,-3.7511,-3.7515,0,-3.714,-3.7176,-3.7339,-3.7338,-3.7364,-3.7436,-3.7476,-3.7529,-3.7545,-3.7529,-3.7556,-3.75,-3.7591,-3.7478,-3.7603,-3.7511,-3.7542,-3.754,-3.7547,-3.7553,-3.7427,-3.7623,-3.7948,-3.798,-3.756,-3.7556,-3.7553,0,-3.736,-3.7449,-3.7558,-3.7573,-3.7574,-3.7627,-3.7631,-3.764,-3.7673,-3.7709,-3.773,-3.7777,-3.7802,-3.7841,-3.7799,-3.772,-3.7932,-3.7814,-3.7922,-3.7924,-3.797,-3.7968,-3.8305,-3.799,-3.799,-3.7989,-3.7988,0,-3.7612,-3.7715,-3.7657,-3.7724,-3.7839,-3.7781,-3.7896,-3.7889,-3.7899,-3.7965,-3.7889,-3.7952,-3.7894,-3.7953,-3.7921,-3.8031,-3.8043,-3.8033,-3.8024,-3.804,-3.8042,-3.806,-3.8044,-3.7997,-3.7996,-3.7994,-3.7992,0,-3.7876,-3.7841,-3.7954,-3.7947,-3.7948,-3.8033,-3.8027,-3.809,-3.807,-3.8154,-3.8171,-3.814,-3.8205,-3.8168,-3.8235,-3.8214,-3.8357,-3.8327,-3.8352,-3.8344,-3.8454,-3.8445,-3.8815,-3.8861,-3.8516,-3.8519,-3.8522,0,-3.8038,-3.8116,-3.8118,-3.8156,-3.8165,-3.8227,-3.826,-3.8208,-3.8246,-3.8271,-3.8332,-3.8391,-3.8435,-3.8545,-3.8529,-3.8581,-3.8552,-3.8678,-3.8559,-3.8574,-3.8555,-3.8551,-3.8559,-3.8702,-3.8706,-3.8709,-3.8712,0,-3.8332,-3.8311,-3.8361,-3.8407,-3.8448,-3.8481,-3.8508,-3.8545,-3.8492,-3.8539,-3.8605,-3.864,-3.8709,-3.877,-3.8814,-3.8819,-3.8759,-3.875,-3.8778,-3.8796,-3.8807,-3.8803,-3.8418,-3.8741,-3.8739,-3.8736,-3.8735,-3.8734,-3.855,-3.8616,-3.8628,-3.8687,-3.8702,-3.873,-3.8789,-3.8777,-3.8831,-3.8883,-3.8849,-3.8928,-3.8944,-3.8998,-3.9011,-3.9073,-3.9022,-3.9062,-3.9072,-3.9083,-3.9099,-3.8798,-3.9081,-3.908,-3.9079,-3.9078,-3.9077,0,-3.884,-3.8844,-3.8899,-3.8939,-3.8987,-3.8925,-3.8953,-3.8997,-3.9067,-3.9087,-3.9132,-3.921,-3.9269,-3.9258,-3.9312,-3.9364,-3.9337,-3.938,-3.9376,-3.9378,-3.914,-3.9111,-3.94,-3.94,-3.94,-3.94,-3.94,-3.94,-3.8996,-3.9105,-3.9086,-3.9202,-3.9205,-3.9281,-3.9302,-3.9328,-3.9344,-3.9434,-3.9482,-3.9475,-3.9484,-3.9538,-3.959,-3.9586,-3.961,-3.9663,-3.9649,-3.9426,-3.9395,-3.9364,-3.9336,-3.9668,-3.9669,-3.9881,-3.9883,-3.9884]},{"header":{"parameterUnit":"m.s-1","parameterCategory":1,"la1":30.2991,"la2":30.254,"lo1":-89.0895,"lo2":-89.0444,"dy":0.0017,"dx":0.0017,"nx":28,"ny":28,"refTime":"2024-12-24T03:00:00:Z","depth":0,"parameterNumber":3,"parameterNumberName":"V-component_of_WINDS"},"data":[0,0,0,0,0,0,0,0,0,0,0,0,0,0,0,0,0,0,0,0,0,0,0,0,0,0,0,0,0,0,0,0,0,0,0,0,0,0,0,0,0,0,0,0,0,0,0,0,0,0,0,0,0,0,0,0,0,0,1.3638,1.3638,0,1.3618,1.3618,1.3618,1.3638,1.3639,1.3639,1.364,1.3613,1.3611,1.361,0,0,0,0,0,0,0,0,0,0,0,0,0,1.369,1.3689,1.3638,1.3638,1.3638,1.3618,1.3618,1.3618,1.3638,1.3639,1.364,1.3641,1.3613,1.3612,1.361,0,0,0,0,0,0,0,0,0,0,0,0,0,1.3668,1.3689,1.3639,1.3646,1.3646,1.3618,1.3618,1.3618,1.3637,1.3639,1.364,1.3641,1.3614,1.3612,1.361,1.3572,0,0,1.3603,1.3602,0,0,0,0,0,0,0,0,1.367,1.3666,1.3645,1.3645,1.3646,1.3632,1.3626,1.3602,1.3637,1.3641,1.364,1.3642,1.3618,1.3615,1.3609,1.357,1.3569,1.3603,1.3601,1.36,1.36,0,0,0,0,0,0,0,1.3671,1.3667,1.363,1.3645,1.3645,1.3649,1.3647,1.3622,1.3622,1.364,1.3642,1.3639,1.3618,1.3611,1.3608,1.3569,1.3603,1.3601,1.3599,1.3599,1.3499,1.3498,0,0,0,0,0,0,1.3673,1.3669,1.3631,1.363,1.3661,1.3647,1.3645,1.3635,1.3623,1.3622,1.3638,1.364,1.3614,1.3611,1.3607,1.3562,1.36,1.3598,1.3597,1.3501,1.3499,1.3498,0,0,0,0,0,0,1.3674,1.3669,1.3632,1.365,1.3645,1.3645,1.3633,1.3634,1.3627,1.3622,1.3621,1.3631,1.3615,1.361,1.3581,1.3561,1.3597,1.3595,1.3502,1.35,1.3498,1.3471,0,0,0,0,0,0,1.3675,1.3669,1.3656,1.3649,1.3644,1.3607,1.3632,1.3633,1.3623,1.3626,1.3614,1.3613,1.3615,1.3584,1.3579,1.3559,1.3594,1.3504,1.3501,1.3499,1.3474,1.3469,1.3464,0,0,0,0,0,1.3677,1.3647,1.3655,1.365,1.3627,1.3606,1.3603,1.3607,1.3622,1.3607,1.3605,1.3614,1.3565,1.3581,1.3575,1.3554,1.3505,1.3502,1.3499,1.3476,1.347,1.3464,0,0,0,0,0,0,1.3648,1.3646,1.3655,1.3622,1.3615,1.3609,1.3591,1.36,1.3586,1.3589,1.3593,1.3591,1.356,1.3554,1.3572,1.3518,1.3537,1.3533,1.3522,1.3516,1.3511,1.3512,1.3592,0,0,0,0,0,1.3639,1.3623,1.3622,1.3593,1.3589,1.3591,1.3582,1.3587,1.3577,1.3573,1.3568,1.3557,1.354,1.3528,1.3511,1.3474,1.3472,1.3457,1.3453,1.3449,1.3444,1.3424,1.3418,1.3488,1.3488,1.3488,0,0,1.3617,1.3615,1.3604,1.3588,1.3582,1.3564,1.3588,1.3567,1.3554,1.3569,1.3542,1.3538,1.3527,1.3494,1.3479,1.3488,1.3425,1.3445,1.3442,1.3439,1.3421,1.3414,1.3408,1.3486,1.3486,1.3487,0,0,1.357,1.3567,1.3543,1.3538,1.353,1.3532,1.3527,1.3521,1.352,1.3493,1.3505,1.3488,1.3458,1.3449,1.3441,1.3394,1.3402,1.3389,1.3362,1.3343,1.3337,1.3332,1.3315,1.3309,1.3385,1.3385,1.3385,0,1.3544,1.3519,1.3529,1.3509,1.3501,1.3518,1.3494,1.3488,1.3474,1.3467,1.3479,1.3443,1.3436,1.3402,1.3391,1.3384,1.3377,1.3388,1.3338,1.3333,1.3328,1.3312,1.3305,1.3383,1.3383,1.3383,1.3383,0,1.3487,1.3471,1.3452,1.3442,1.3432,1.3409,1.3415,1.3404,1.3411,1.3411,1.3384,1.3377,1.336,1.3353,1.3358,1.3319,1.3325,1.3338,1.3357,1.332,1.3304,1.3298,1.3381,1.3381,1.3382,1.3382,0,0,1.3417,1.3416,1.3408,1.3404,1.3399,1.3385,1.3364,1.335,1.334,1.3331,1.3312,1.3288,1.33,1.3291,1.3295,1.3279,1.3242,1.3293,1.3293,1.3283,1.3198,1.3188,1.318,1.3249,1.3247,1.3246,1.3199,0,1.3369,1.3334,1.3344,1.3308,1.3292,1.331,1.3291,1.3285,1.3286,1.3272,1.3272,1.3254,1.3272,1.3267,1.3251,1.325,1.3225,1.3253,1.3229,1.3228,1.3229,1.3172,1.316,1.3116,1.3193,1.3192,1.3191,0,1.3307,1.3298,1.3262,1.3261,1.3254,1.3238,1.3226,1.3213,1.3207,1.3209,1.32,1.3209,1.3187,1.3209,1.3179,1.3198,1.3189,1.3187,1.3186,1.3181,1.3206,1.3164,1.3101,1.3094,1.3182,1.3182,1.3183,0,1.3258,1.3237,1.3213,1.3209,1.3208,1.3195,1.3194,1.3189,1.3181,1.3171,1.3165,1.3152,1.3144,1.3133,1.3138,1.3154,1.3106,1.3129,1.3106,1.3105,1.3092,1.3092,1.3025,1.309,1.309,1.309,1.309,0,1.3201,1.3178,1.3192,1.3176,1.3151,1.3162,1.3136,1.3137,1.3133,1.3117,1.3132,1.3116,1.3125,1.311,1.3114,1.3087,1.3084,1.3084,1.3084,1.3081,1.3081,1.3073,1.3076,1.3089,1.3089,1.3089,1.309,0,1.3141,1.3149,1.3124,1.3126,1.3126,1.3107,1.3108,1.3093,1.3097,1.3077,1.3073,1.3077,1.3061,1.3066,1.3047,1.305,1.3016,1.3022,1.3019,1.3019,1.2995,1.2997,1.2919,1.2909,1.2982,1.2982,1.2981,0,1.3103,1.3086,1.3087,1.3079,1.3077,1.3063,1.3056,1.3067,1.3059,1.3052,1.3038,1.3024,1.3012,1.2985,1.2986,1.2972,1.2976,1.295,1.2974,1.2971,1.2974,1.2974,1.2972,1.2944,1.2943,1.2942,1.2942,0,1.3034,1.3041,1.303,1.3022,1.3013,1.3006,1.3,1.2992,1.3004,1.2993,1.2978,1.297,1.2953,1.2938,1.2926,1.2923,1.2933,1.2935,1.2929,1.2924,1.2922,1.2921,1.3004,1.2936,1.2937,1.2937,1.2937,1.2938,1.2983,1.2969,1.2968,1.2956,1.2955,1.295,1.2937,1.294,1.2928,1.2917,1.2924,1.2906,1.2902,1.2888,1.2884,1.2869,1.2879,1.287,1.2867,1.2864,1.2861,1.2927,1.2867,1.2867,1.2867,1.2868,1.2868,0,1.2914,1.2916,1.2905,1.2898,1.2889,1.2904,1.2899,1.289,1.2875,1.2871,1.2861,1.2844,1.283,1.2832,1.2819,1.2807,1.2812,1.2803,1.2803,1.2802,1.2853,1.2859,1.28,1.28,1.28,1.28,1.28,1.28,1.2877,1.2854,1.286,1.2837,1.2838,1.2822,1.2818,1.2814,1.2811,1.2792,1.2782,1.2784,1.2782,1.277,1.2758,1.2759,1.2753,1.2742,1.2744,1.2791,1.2798,1.2804,1.281,1.2741,1.2741,1.2694,1.2693,1.2693]}]]